TimeCST,TemperatureF,Dew PointF,Humidity,Sea Level PressureIn,VisibilityMPH,Wind Direction,Wind SpeedMPH,Gust SpeedMPH,PrecipitationIn,Events,Conditions,WindDirDegrees,DateUTC
12:56 AM,35.1,30.9,85,30.35,10.0,Calm,Calm,-,N/A,,Clear,0,2012-11-29 06:56:00
1:56 AM,33.1,30.0,89,30.35,10.0,Calm,Calm,-,N/A,,Clear,0,2012-11-29 07:56:00
2:56 AM,33.1,30.0,89,30.35,10.0,Calm,Calm,-,N/A,,Clear,0,2012-11-29 08:56:00
3:56 AM,32.0,28.9,88,30.35,10.0,Calm,Calm,-,N/A,,Clear,0,2012-11-29 09:56:00
4:56 AM,32.0,28.9,88,30.35,10.0,NNW,3.5,-,N/A,,Clear,340,2012-11-29 10:56:00
5:09 AM,32.0,28.4,87,30.34,10.0,Calm,Calm,-,N/A,,Scattered Clouds,0,2012-11-29 11:09:00
5:18 AM,32.0,28.4,87,30.34,10.0,Calm,Calm,-,N/A,,Mostly Cloudy,0,2012-11-29 11:18:00
5:26 AM,32.0,30.2,93,30.34,10.0,Calm,Calm,-,N/A,,Overcast,0,2012-11-29 11:26:00
5:47 AM,30.2,28.4,93,30.35,1.8,North,3.5,-,N/A,,Overcast,350,2012-11-29 11:47:00
5:56 AM,30.9,28.9,92,30.36,1.2,North,3.5,-,N/A,,Overcast,360,2012-11-29 11:56:00
6:14 AM,30.2,28.4,93,30.36,0.8,Calm,Calm,-,N/A,,Mist,0,2012-11-29 12:14:00
6:23 AM,30.2,28.4,93,30.36,2.0,North,3.5,-,N/A,,Overcast,350,2012-11-29 12:23:00
6:31 AM,30.2,28.4,93,30.36,4.0,North,3.5,-,N/A,,Overcast,350,2012-11-29 12:31:00
6:56 AM,33.1,30.0,89,30.38,8.0,Calm,Calm,-,N/A,,Partly Cloudy,0,2012-11-29 12:56:00
7:56 AM,39.9,37.0,89,30.40,4.0,North,4.6,-,N/A,,Clear,10,2012-11-29 13:56:00
8:56 AM,50.0,43.0,77,30.40,7.0,East,4.6,-,N/A,,Clear,80,2012-11-29 14:56:00
9:56 AM,52.0,43.0,71,30.41,9.0,ESE,8.1,-,N/A,,Overcast,120,2012-11-29 15:56:00
10:56 AM,52.0,42.1,69,30.41,10.0,SE,4.6,-,N/A,,Overcast,130,2012-11-29 16:56:00
11:56 AM,53.1,42.1,66,30.39,10.0,SE,6.9,-,N/A,,Overcast,130,2012-11-29 17:56:00
12:56 PM,53.1,42.1,66,30.36,10.0,ENE,3.5,-,N/A,,Overcast,60,2012-11-29 18:56:00
1:56 PM,55.0,42.1,62,30.33,10.0,NE,9.2,-,N/A,,Mostly Cloudy,50,2012-11-29 19:56:00
2:10 PM,53.6,42.8,67,30.32,10.0,ENE,6.9,-,N/A,,Scattered Clouds,60,2012-11-29 20:10:00
2:56 PM,55.0,42.1,62,30.31,10.0,ENE,8.1,-,N/A,,Clear,60,2012-11-29 20:56:00
3:56 PM,54.0,42.1,64,30.31,10.0,East,3.5,-,N/A,,Clear,80,2012-11-29 21:56:00
4:56 PM,51.1,42.1,71,30.31,10.0,Calm,Calm,-,N/A,,Clear,0,2012-11-29 22:56:00
5:56 PM,46.0,42.1,86,30.33,10.0,Calm,Calm,-,N/A,,Clear,0,2012-11-29 23:56:00
6:24 PM,42.8,39.2,87,30.31,9.0,North,4.6,-,N/A,,Mostly Cloudy,360,2012-11-30 00:24:00
6:32 PM,42.8,39.2,87,30.32,8.0,North,5.8,-,N/A,,Scattered Clouds,10,2012-11-30 00:32:00
6:56 PM,43.0,39.9,89,30.32,9.0,North,3.5,-,N/A,,Partly Cloudy,10,2012-11-30 00:56:00
7:56 PM,39.9,37.9,93,30.33,8.0,North,3.5,-,N/A,,Clear,360,2012-11-30 01:56:00
8:56 PM,39.9,37.0,89,30.32,9.0,Calm,Calm,-,N/A,,Clear,0,2012-11-30 02:56:00
9:56 PM,39.9,37.0,89,30.32,9.0,Calm,Calm,-,N/A,,Clear,0,2012-11-30 03:56:00
10:56 PM,37.9,35.1,89,30.31,9.0,Calm,Calm,-,N/A,,Scattered Clouds,0,2012-11-30 04:56:00
11:56 PM,39.0,37.0,93,30.31,9.0,Calm,Calm,-,N/A,,Mostly Cloudy,0,2012-11-30 05:56:00